Location: Fours
(44.3167°N, 6.7000°E)
Time: 07:17:48
(UTC+00:00)

ISS - Pass Details

Date: 01 October 2021
Orbit: 417 x 423 km, 51.6° (Epoch: 23 October)

Event Time Altitude Azimuth Distance (km) Brightness Sun altitude
Rises 19:52:16 0° 296° (WNW) 2,366 1.3 -28.5°
Reaches altitude 10° 19:54:27 10° 288° (WNW) 1,500 0.0 -28.8°
Enters shadow 19:55:25 17° 279° (W) 1,150 -0.8 -29.0°
